Terminal Aerodrome Forecast
Issued by NWS Green Bay, WI

Home | Current Version | Previous Version | Graphics & Text | Print | Product List | Glossary On
Versions: 1 2 3 4 5 6 7 8 9 10 11 12 13 14 15 16 17 18 19 20 21 22 23 24 25 26 27 28 29 30
000
FTUS43 KGRB 210500
TAFGRB
TAF
KGRB 210525Z 2106/2206 19007KT P6SM SKC
     FM210900 20005KT 5SM BR SKC
     FM211400 20010G17KT P6SM SCT050 SCT120
      TEMPO 2116/2120 BKN050
     FM212300 17006KT P6SM FEW050=

USA.gov is the U.S. government's official web portal to all federal, state and local government web resources and services.